Wind_Speed
8 9 8 8 8 9 9 9 8 7 7 7 7 7 8 8 8 7 7 8 8 9 9 9 9 9 9 8 8 8 7 6 6 6 6 5 5 4 3 3 3 3 2 2
8 8 8 8 8 8 9 9 9 8 7 6 7 8 8 9 9 8 8 8 9 9 9 10 9 9 9 9 9 8 8 7 7 7 6 6 5 5 4 4 4 3 3 3
8 8 8 8 8 8 8 8 8 8 7 7 7 8 8 9 9 9 9 8 8 9 9 9 9 9 9 9 9 9 8 8 8 8 7 6 6 5 5 5 4 4 4 4
9 9 8 7 7 7 7 7 7 7 7 6 7 7 8 8 9 10 9 9 9 9 9 10 10 10 10 10 10 10 9 8 8 9 8 8 7 6 6 6 5 5 5 5
9 9 8 7 6 7 7 7 7 7 7 6 6 7 7 7 8 8 9 9 10 10 9 10 11 11 10 10 10 10 10 9 9 9 9 9 8 8 7 7 6 6 6 5
9 9 8 7 6 7 7 8 7 7 7 7 6 7 6 6 7 8 8 9 10 10 10 10 11 11 11 11 11 10 10 10 10 9 9 9 9 8 8 8 7 7 6 6
10 10 9 8 7 8 8 8 8 8 8 7 7 8 7 6 7 8 8 9 9 10 10 11 12 12 12 12 12 11 11 11 11 10 9 9 9 9 9 9 8 7 7 7
11 11 10 9 8 8 7 8 8 8 7 7 8 8 7 7 7 7 9 9 9 10 11 11 12 12 12 13 13 13 12 11 11 11 10 10 9 10 9 9 9 8 8 8
11 11 10 10 9 8 8 8 8 10 9 9 9 9 7 7 8 8 9 9 10 10 11 11 11 12 12 13 13 13 13 12 12 11 11 10 10 10 10 10 10 9 9 9
12 12 11 10 10 10 10 10 10 10 11 11 10 10 9 8 9 9 10 10 10 11 12 12 12 12 12 13 13 13 13 13 13 12 12 11 11 11 10 10 10 10 9 9
12 13 13 13 11 10 11 11 11 12 12 12 11 10 10 9 9 9 10 10 10 12 13 13 12 13 13 13 13 14 14 13 13 12 12 12 11 11 11 10 10 10 10 10
14 13 13 13 12 11 11 11 12 12 12 13 12 10 10 10 10 9 9 10 10 11 12 14 14 14 14 14 14 14 15 14 14 13 13 12 11 11 11 11 11 11 11 11
15 14 14 15 14 14 13 12 13 12 12 12 12 11 10 11 10 9 9 9 9 10 11 13 13 14 14 15 14 15 15 15 15 15 14 13 13 12 12 12 12 12 12 13
16 16 15 14 14 14 14 13 13 14 13 12 12 11 11 11 10 10 10 10 10 10 11 12 13 13 14 15 14 14 15 15 14 14 14 14 14 13 13 13 13 14 14 14
18 17 16 16 16 16 16 15 14 14 14 14 12 12 11 11 11 11 11 11 11 11 11 12 13 13 14 14 14 14 14 14 14 14 14 14 14 14 14 14 14 14 14 14
20 19 18 17 17 18 17 16 15 15 14 14 13 12 11 12 12 11 11 11 11 11 11 12 13 13 14 14 14 14 14 15 15 14 14 15 15 15 14 14 15 14 14 15
21 20 19 18 18 20 19 17 16 16 15 14 14 12 12 12 11 11 11 11 11 11 11 11 12 13 14 14 14 14 14 14 14 15 15 15 15 15 15 14 14 14 15 15
22 22 21 20 20 22 18 17 16 16 15 15 15 14 13 12 12 11 11 11 12 12 12 11 11 12 13 14 14 14 15 15 15 15 15 15 15 14 14 14 14 14 15 15
23 22 22 23 22 21 19 18 17 17 16 15 15 15 14 13 13 12 12 12 12 13 13 13 13 13 13 13 14 14 14 15 16 16 16 16 15 15 15 15 15 15 15 16
25 24 23 24 23 22 19 18 18 19 17 15 15 15 15 14 14 12 13 13 14 14 14 14 14 14 14 14 14 15 15 16 16 16 16 16 16 16 16 16 16 16 16 16
26 25 25 25 24 22 19 19 19 20 17 16 16 16 16 15 14 14 13 14 14 15 15 15 15 15 15 16 16 15 15 16 16 16 16 17 17 17 17 17 17 17 16 16
27 26 26 25 25 23 20 19 19 19 18 17 17 17 17 16 16 15 15 15 15 15 15 16 16 16 16 16 16 16 16 16 17 17 17 17 17 17 17 17 17 17 17 17
27 26 26 25 24 22 21 19 19 19 18 17 17 18 18 18 17 16 16 16 16 16 16 16 16 16 16 16 16 16 16 17 17 17 17 17 17 17 17 17 17 17 17 17
27 27 25 25 24 23 21 20 20 19 19 18 18 18 18 18 17 17 17 17 17 17 17 17 17 17 16 17 17 17 17 17 18 18 18 18 17 17 17 17 17 18 18 18
28 27 26 25 24 24 23 22 22 21 20 20 19 20 20 19 19 18 18 18 19 19 18 18 17 17 17 17 17 17 17 18 18 19 19 19 18 18 18 18 18 19 20 20
29 28 28 27 26 25 24 24 23 21 21 21 21 21 21 21 20 19 19 19 19 19 19 19 18 18 18 18 18 18 18 19 20 20 19 19 19 19 19 19 19 20 21 21
Wind_Direction
224 226 226 223 220 216 216 219 221 219 226 232 231 226 224 226 220 222 221 224 221 211 210 210 212 218 220 217 216 218 219 222 219 215 217 221 226 228 229 237 239 237 246 265
219 218 221 220 222 222 225 227 227 229 234 236 228 222 223 225 224 223 218 219 217 210 209 210 215 217 215 214 214 217 221 222 223 220 221 228 232 233 235 238 239 243 253 267
223 216 217 220 224 221 224 228 233 235 236 238 231 225 225 222 224 222 218 214 211 211 205 207 213 212 213 215 219 220 222 224 224 222 224 230 235 234 234 238 240 245 251 264
217 216 216 217 220 220 223 225 230 233 231 232 237 229 221 221 225 221 217 215 216 212 208 210 214 213 214 218 222 223 224 227 226 227 231 232 236 236 236 237 239 247 253 261
211 213 212 216 220 219 223 224 226 228 235 241 240 229 220 222 221 215 214 217 219 219 218 216 214 215 217 220 222 225 226 227 227 230 234 237 239 239 238 239 243 249 256 260
212 214 214 216 220 217 217 222 224 227 234 235 237 233 221 221 219 215 216 217 219 218 215 213 216 216 218 222 225 227 227 227 228 231 233 237 238 239 240 241 246 249 255 259
211 213 215 214 219 221 222 225 226 230 232 229 232 233 229 229 225 217 216 213 217 217 219 219 221 221 222 224 225 227 229 230 232 233 234 237 241 242 242 243 246 248 253 260
216 215 217 220 225 229 225 227 233 235 235 232 231 234 231 228 223 220 216 218 222 223 224 224 224 224 224 227 228 228 231 233 234 234 233 238 245 244 244 248 249 247 250 256
218 219 221 223 220 223 226 231 235 237 239 238 233 237 232 228 224 221 220 220 223 226 226 227 228 228 228 228 229 228 230 232 233 236 237 241 245 245 246 247 246 246 250 256
221 224 222 224 226 226 229 232 235 238 243 243 243 243 241 235 236 230 227 227 230 230 230 230 230 230 229 229 230 230 231 233 235 237 240 243 245 246 245 248 247 245 250 255
228 230 227 226 232 236 237 238 240 243 247 247 252 248 245 246 241 236 231 232 234 233 233 233 232 231 231 231 229 231 231 232 236 238 239 242 244 245 245 247 247 246 250 254
233 234 234 234 236 238 238 243 246 251 252 252 253 250 250 249 247 243 240 240 237 234 235 234 234 236 233 233 233 234 231 233 235 237 239 241 243 243 244 247 249 250 253 257
234 235 237 234 237 238 239 243 246 251 254 254 251 251 251 251 250 247 248 245 243 241 237 236 238 236 233 235 235 236 234 233 236 238 240 241 242 244 247 248 249 252 255 258
236 237 237 238 241 241 242 245 246 248 251 254 256 258 253 251 252 250 249 250 247 245 240 237 237 233 232 232 232 235 234 233 236 239 242 243 243 247 251 252 254 256 256 259
237 238 239 239 238 240 242 244 246 248 247 250 255 259 257 252 253 254 250 248 245 244 240 235 236 234 233 232 231 233 235 236 237 239 242 244 245 249 253 254 256 258 258 260
239 239 238 239 240 241 243 243 245 246 244 247 248 251 253 251 252 257 255 250 245 242 239 236 235 235 233 231 230 232 235 236 238 240 242 243 246 250 252 255 258 258 258 261
238 241 242 243 242 242 242 243 246 247 248 249 246 243 248 252 253 253 253 248 246 246 243 240 238 236 234 232 231 233 235 237 238 241 244 245 246 250 252 254 257 257 259 263
237 238 241 244 244 244 242 242 246 247 247 249 249 244 245 251 250 250 250 247 244 245 244 244 242 241 238 235 236 238 239 239 240 242 244 245 245 248 251 254 259 262 265 267
237 239 241 244 247 246 241 239 243 248 248 250 250 245 246 248 246 246 245 246 244 242 244 243 244 245 245 244 243 244 244 244 243 244 246 245 245 249 254 258 261 264 266 268
234 238 241 244 246 244 242 241 241 244 246 248 249 248 247 249 251 250 248 247 247 245 244 244 245 246 247 247 247 247 247 247 247 246 246 246 247 250 255 258 263 266 268 269
232 235 239 243 246 246 244 243 243 245 248 246 248 248 248 246 248 248 250 251 250 247 246 246 248 248 248 249 250 251 251 251 250 249 249 249 249 252 254 258 263 266 267 270
233 235 238 243 245 246 247 247 246 246 247 246 247 249 248 249 248 250 252 252 251 249 247 247 248 247 248 250 252 254 253 251 251 252 252 252 253 254 256 259 262 265 268 270
234 237 240 244 246 247 248 247 245 245 246 245 245 247 248 250 250 251 253 252 251 250 247 246 247 248 249 250 252 254 253 252 251 251 251 252 254 256 260 261 263 265 269 271
234 236 239 241 243 245 245 246 246 246 249 247 246 247 247 248 252 253 253 253 252 252 250 248 247 250 251 251 252 252 252 250 248 249 250 252 255 257 260 262 264 266 269 271
235 237 239 240 242 244 243 244 243 245 248 249 249 248 248 250 253 254 253 253 254 253 252 249 249 250 250 251 251 251 251 250 249 250 252 255 257 258 260 261 263 266 269 271
235 238 239 239 241 242 243 244 245 248 248 248 249 249 249 248 251 254 254 255 256 254 250 247 248 249 250 251 251 250 250 250 251 254 254 255 258 261 263 266 269 270 272 274
Height
5850 5852 5852 5853 5853 5854 5855 5856 5857 5858 5858 5859 5859 5860 5861 5862 5862 5863 5864 5865 5866 5868 5869 5870 5872 5873 5874 5875 5877 5878 5879 5879 5880 5881 5882 5882 5883 5883 5883 5883 5884 5884 5884 5883
5849 5850 5851 5851 5851 5852 5854 5855 5855 5856 5856 5857 5858 5859 5859 5860 5861 5862 5863 5864 5865 5866 5867 5869 5870 5872 5873 5874 5875 5876 5877 5878 5879 5880 5880 5881 5881 5882 5882 5882 5883 5883 5883 5883
5847 5849 5849 5849 5850 5851 5852 5853 5853 5854 5855 5855 5856 5857 5858 5858 5859 5860 5861 5862 5863 5864 5866 5867 5868 5870 5871 5872 5874 5875 5875 5876 5877 5878 5879 5879 5880 5880 5881 5881 5881 5882 5882 5882
5845 5846 5847 5847 5848 5849 5851 5851 5852 5852 5853 5854 5855 5855 5856 5857 5857 5858 5859 5860 5862 5863 5864 5865 5866 5868 5869 5871 5872 5873 5874 5875 5876 5876 5877 5878 5878 5879 5879 5879 5880 5880 5880 5880
5844 5845 5845 5846 5847 5848 5849 5849 5850 5851 5851 5852 5852 5853 5855 5854 5855 5856 5857 5858 5860 5861 5862 5863 5864 5866 5867 5869 5870 5871 5872 5873 5874 5874 5875 5876 5876 5877 5877 5878 5878 5878 5878 5879
5842 5843 5844 5845 5846 5847 5847 5848 5848 5849 5849 5851 5851 5851 5853 5853 5853 5854 5855 5856 5857 5858 5860 5861 5862 5864 5865 5866 5868 5869 5870 5871 5871 5872 5873 5874 5874 5875 5875 5876 5876 5876 5877 5877
5840 5841 5842 5843 5844 5845 5846 5847 5848 5847 5848 5849 5849 5849 5851 5851 5851 5852 5853 5854 5855 5856 5857 5859 5860 5861 5863 5864 5865 5867 5868 5868 5869 5870 5871 5872 5872 5873 5873 5874 5874 5874 5875 5875
5837 5839 5840 5841 5842 5843 5844 5845 5846 5847 5846 5847 5846 5847 5849 5849 5849 5849 5850 5852 5853 5854 5855 5856 5857 5859 5860 5861 5863 5864 5865 5866 5867 5868 5869 5869 5870 5871 5871 5872 5872 5872 5873 5873
5835 5837 5838 5839 5840 5841 5842 5842 5843 5844 5844 5844 5844 5845 5846 5846 5846 5847 5848 5849 5850 5851 5852 5853 5854 5856 5857 5859 5860 5861 5863 5864 5865 5866 5866 5867 5868 5868 5869 5869 5870 5870 5870 5871
5833 5834 5836 5837 5837 5838 5840 5840 5840 5841 5841 5841 5842 5842 5844 5843 5844 5845 5845 5847 5848 5848 5849 5850 5852 5853 5854 5856 5857 5858 5860 5861 5862 5863 5864 5864 5865 5866 5866 5867 5867 5868 5868 5868
5829 5832 5833 5834 5835 5836 5837 5837 5837 5838 5838 5839 5839 5842 5841 5841 5841 5842 5843 5843 5844 5845 5846 5847 5849 5850 5851 5853 5854 5855 5857 5858 5859 5860 5861 5862 5862 5863 5863 5864 5865 5865 5865 5866
5826 5828 5829 5831 5832 5833 5833 5834 5834 5835 5835 5835 5836 5840 5838 5838 5838 5839 5840 5840 5841 5842 5843 5844 5845 5846 5848 5849 5851 5852 5853 5855 5856 5857 5858 5859 5859 5860 5861 5861 5862 5862 5862 5863
5823 5825 5826 5827 5830 5830 5830 5831 5831 5832 5832 5832 5833 5837 5835 5835 5835 5836 5837 5837 5838 5839 5840 5841 5842 5843 5844 5846 5847 5849 5850 5851 5853 5854 5855 5855 5856 5857 5857 5858 5858 5859 5859 5859
5819 5820 5823 5825 5826 5826 5827 5828 5828 5828 5829 5829 5830 5831 5832 5832 5833 5833 5834 5834 5835 5836 5837 5838 5839 5840 5841 5842 5843 5845 5846 5848 5849 5850 5851 5852 5853 5853 5854 5855 5855 5855 5855 5856
5814 5816 5817 5819 5821 5822 5822 5823 5824 5825 5826 5827 5828 5828 5829 5829 5830 5830 5831 5831 5832 5833 5833 5834 5835 5836 5837 5839 5840 5841 5843 5844 5845 5847 5848 5848 5849 5850 5850 5851 5851 5851 5851 5851
5809 5811 5813 5815 5816 5817 5818 5819 5820 5821 5822 5823 5824 5825 5826 5826 5827 5827 5827 5828 5829 5830 5830 5831 5832 5833 5834 5836 5837 5838 5839 5841 5842 5843 5844 5845 5845 5846 5847 5847 5847 5847 5847 5847
5803 5806 5808 5810 5811 5812 5813 5815 5816 5817 5818 5819 5820 5822 5822 5822 5823 5824 5824 5825 5826 5826 5827 5828 5829 5830 5831 5832 5834 5835 5836 5837 5838 5839 5840 5841 5841 5842 5842 5843 5843 5843 5843 5843
5798 5800 5802 5804 5806 5807 5812 5812 5812 5813 5814 5815 5816 5818 5818 5819 5820 5820 5821 5822 5823 5823 5824 5825 5826 5827 5828 5829 5830 5831 5832 5833 5834 5835 5836 5837 5837 5838 5838 5839 5839 5839 5839 5839
5792 5794 5796 5798 5799 5802 5806 5807 5807 5808 5810 5811 5812 5813 5814 5815 5816 5817 5817 5818 5819 5820 5820 5821 5822 5823 5824 5825 5826 5827 5828 5829 5830 5831 5832 5833 5833 5834 5834 5834 5835 5834 5834 5834
5786 5789 5791 5792 5793 5796 5801 5803 5802 5804 5805 5807 5808 5809 5810 5811 5812 5813 5813 5814 5815 5816 5816 5817 5818 5819 5820 5821 5822 5823 5824 5825 5826 5827 5828 5828 5829 5829 5830 5830 5830 5830 5830 5829
5780 5782 5784 5786 5787 5790 5795 5796 5797 5799 5802 5802 5803 5804 5806 5806 5808 5809 5809 5810 5811 5811 5812 5813 5814 5815 5816 5817 5818 5819 5820 5821 5822 5822 5823 5824 5824 5825 5825 5825 5825 5825 5825 5825
5773 5775 5778 5779 5782 5787 5788 5790 5792 5794 5795 5796 5798 5799 5800 5802 5803 5804 5805 5805 5806 5807 5807 5808 5810 5811 5812 5813 5814 5815 5816 5816 5817 5818 5818 5819 5819 5820 5820 5821 5821 5820 5820 5820
5766 5770 5772 5775 5778 5780 5782 5784 5786 5787 5789 5791 5792 5794 5795 5796 5797 5799 5800 5800 5801 5802 5803 5804 5805 5806 5807 5808 5809 5810 5811 5811 5812 5813 5813 5814 5814 5815 5815 5816 5816 5815 5815 5815
5759 5762 5764 5767 5770 5773 5775 5777 5779 5781 5783 5785 5786 5788 5789 5790 5791 5793 5794 5795 5796 5796 5797 5798 5800 5801 5802 5803 5804 5805 5806 5806 5807 5808 5808 5809 5810 5810 5810 5810 5810 5810 5810 5809
5752 5755 5757 5760 5764 5766 5769 5771 5773 5775 5777 5778 5780 5781 5783 5784 5785 5787 5788 5789 5790 5790 5791 5793 5794 5796 5797 5798 5799 5800 5800 5801 5802 5803 5803 5804 5804 5805 5805 5805 5805 5804 5804 5804
5745 5747 5750 5753 5757 5759 5762 5764 5766 5768 5770 5772 5774 5775 5777 5778 5779 5781 5782 5783 5784 5785 5786 5787 5788 5790 5791 5792 5793 5794 5795 5796 5797 5798 5798 5798 5799 5799 5799 5799 5799 5798 5798 5797